Location: Flotzheim
(48.8375°N, 10.8136°E)
Time: 16:45:30
(UTC+00:00)

ERS-2 - Pass Details

Date: 23 January 2021
Orbit: 492 x 497 km, 98.6° (Epoch: 28 February)

Event Time Altitude Azimuth Distance (km) Brightness Sun altitude
Exits shadow 16:37:27 - 53° (NE) 1,909 4.4 -6.4°
Reaches altitude 10° 16:38:27 10° 65° (ENE) 1,695 4.1 -6.5°
Maximum altitude 16:40:00 12° 91° (E) 1,553 4.1 -6.7°
Drops below altitude 10° 16:41:32 10° 116° (ESE) 1,688 4.4 -7.0°
Sets 16:44:43 0° 148° (SSE) 2,562 5.6 -7.5°
